• In Österreich
  • Länderverzeichnis
  • Für 7 Tage
  • Wassertemperatur
  • Satellitenkarten
  • Wetterkarte
  • News
  • Widgets
  • user-avatar
    Anmelden

    Stündliche Wetter Masvingo

    Heute, 23 Juni, Samstag

    Zeit Temperatur Niederschläge Wind Luftdruck Luftfeuchtigkeit
    00:00 +14°C° 0 mm 1 m/S 675 mmHg 70%
    01:00 +13°C° 0 mm 1 m/S 675 mmHg 72%
    02:00 +12°C° 0 mm 0 m/S 675 mmHg 75%
    03:00 +12°C° 0 mm 0 m/S 675 mmHg 77%
    04:00 +11°C° 0 mm 0 m/S 675 mmHg 79%
    05:00 +11°C° 0 mm 0 m/S 675 mmHg 81%
    06:00 +12°C° 0 mm 0 m/S 675 mmHg 76%
    07:00 +13°C° 0 mm 0 m/S 676 mmHg 72%
    08:00 +15°C° 0 mm 0 m/S 676 mmHg 66%
    09:00 +18°C° 0 mm 1 m/S 676 mmHg 59%
    10:00 +19°C° 0 mm 2 m/S 677 mmHg 52%
    11:00 +21°C° 0 mm 3 m/S 677 mmHg 45%
    12:00 +22°C° 0 mm 3 m/S 676 mmHg 42%
    13:00 +22°C° 0 mm 3 m/S 676 mmHg 39%
    14:00 +24°C° 0 mm 3 m/S 675 mmHg 35%
    15:00 +22°C° 0 mm 3 m/S 675 mmHg 38%
    16:00 +23°C° 0 mm 2 m/S 674 mmHg 40%
    17:00 +21°C° 0 mm 2 m/S 674 mmHg 42%
    18:00 +19°C° 0 mm 2 m/S 674 mmHg 45%
    19:00 +18°C° 0 mm 2 m/S 674 mmHg 48%
    20:00 +16°C° 0 mm 2 m/S 674 mmHg 52%
    21:00 +16°C° 0 mm 1 m/S 674 mmHg 53%
    22:00 +15°C° 0 mm 1 m/S 674 mmHg 53%
    23:00 +14°C° 0 mm 1 m/S 674 mmHg 54%

    Morgen, 24 Juni, Sonntag

    Zeit Temperatur Niederschläge Wind Luftdruck Luftfeuchtigkeit
    00:00 +14°C° 0 mm 1 m/S 674 mmHg 55%
    01:00 +12°C° 0 mm 0 m/S 674 mmHg 56%
    02:00 +12°C° 0 mm 0 m/S 674 mmHg 57%
    03:00 +12°C° 0 mm 0 m/S 673 mmHg 59%
    04:00 +11°C° 0 mm 0 m/S 673 mmHg 60%
    05:00 +11°C° 0 mm 0 m/S 673 mmHg 61%
    06:00 +12°C° 0 mm 0 m/S 674 mmHg 58%
    07:00 +13°C° 0 mm 0 m/S 674 mmHg 55%
    08:00 +14°C° 0 mm 0 m/S 675 mmHg 52%
    09:00 +17°C° 0 mm 0 m/S 675 mmHg 46%
    10:00 +21°C° 0 mm 1 m/S 676 mmHg 40%
    11:00 +24°C° 0 mm 1 m/S 676 mmHg 34%
    12:00 +24°C° 0 mm 1 m/S 676 mmHg 32%
    13:00 +25°C° 0 mm 2 m/S 675 mmHg 30%
    14:00 +25°C° 0 mm 2 m/S 674 mmHg 27%
    15:00 +24°C° 0 mm 2 m/S 674 mmHg 29%
    16:00 +23°C° 0 mm 2 m/S 674 mmHg 32%
    17:00 +21°C° 0 mm 2 m/S 674 mmHg 34%
    18:00 +19°C° 0 mm 2 m/S 674 mmHg 38%
    19:00 +18°C° 0 mm 2 m/S 674 mmHg 41%
    20:00 +16°C° 0 mm 1 m/S 674 mmHg 45%
    21:00 +16°C° 0 mm 1 m/S 674 mmHg 47%
    22:00 +15°C° 0 mm 1 m/S 674 mmHg 48%
    23:00 +15°C° 0 mm 1 m/S 674 mmHg 49%

    übermorgen, 25 Juni, Montag

    Zeit Temperatur Niederschläge Wind Luftdruck Luftfeuchtigkeit
    00:00 +14°C° 0 mm 1 m/S 674 mmHg 50%
    01:00 +14°C° 0 mm 1 m/S 674 mmHg 51%
    02:00 +12°C° 0 mm 0 m/S 674 mmHg 53%
    03:00 +12°C° 0 mm 0 m/S 674 mmHg 54%
    04:00 +12°C° 0 mm 0 m/S 674 mmHg 55%
    05:00 +12°C° 0 mm 1 m/S 673 mmHg 57%
    06:00 +12°C° 0 mm 0 m/S 674 mmHg 55%
    07:00 +13°C° 0 mm 0 m/S 675 mmHg 52%
    08:00 +14°C° 0 mm 0 m/S 675 mmHg 50%
    09:00 +19°C° 0 mm 1 m/S 676 mmHg 44%
    10:00 +20°C° 0 mm 2 m/S 676 mmHg 38%
    11:00 +23°C° 0 mm 2 m/S 676 mmHg 31%
    12:00 +22°C° 0 mm 3 m/S 676 mmHg 29%
    13:00 +24°C° 0 mm 3 m/S 675 mmHg 28%
    14:00 +25°C° 0 mm 3 m/S 675 mmHg 26%
    15:00 +24°C° 0 mm 3 m/S 674 mmHg 28%
    16:00 +22°C° 0 mm 3 m/S 674 mmHg 30%
    17:00 +21°C° 0 mm 3 m/S 674 mmHg 33%
    18:00 +19°C° 0 mm 2 m/S 674 mmHg 36%
    19:00 +17°C° 0 mm 2 m/S 674 mmHg 40%
    20:00 +16°C° 0 mm 2 m/S 674 mmHg 43%
    21:00 +15°C° 0 mm 2 m/S 674 mmHg 45%
    22:00 +15°C° 0 mm 1 m/S 675 mmHg 47%
    23:00 +14°C° 0 mm 1 m/S 675 mmHg 49%

    26 Juni, Dienstag

    Zeit Temperatur Niederschläge Wind Luftdruck Luftfeuchtigkeit
    00:00 +14°C° 0 mm 1 m/S 674 mmHg 50%
    01:00 +13°C° 0 mm 1 m/S 674 mmHg 52%
    02:00 +13°C° 0 mm 1 m/S 674 mmHg 53%
    03:00 +12°C° 0 mm 1 m/S 674 mmHg 54%
    04:00 +11°C° 0 mm 0 m/S 674 mmHg 55%
    05:00 +11°C° 0 mm 0 m/S 674 mmHg 56%
    06:00 +12°C° 0 mm 0 m/S 674 mmHg 53%
    07:00 +13°C° 0 mm 0 m/S 675 mmHg 50%
    08:00 +14°C° 0 mm 0 m/S 676 mmHg 47%
    09:00 +18°C° 0 mm 1 m/S 676 mmHg 41%
    10:00 +21°C° 0 mm 1 m/S 676 mmHg 36%
    11:00 +23°C° 0 mm 1 m/S 677 mmHg 30%
    12:00 +24°C° 0 mm 2 m/S 676 mmHg 28%
    13:00 +24°C° 0 mm 2 m/S 675 mmHg 27%
    14:00 +25°C° 0 mm 2 m/S 675 mmHg 25%
    15:00 +24°C° 0 mm 2 m/S 674 mmHg 28%
    16:00 +23°C° 0 mm 2 m/S 674 mmHg 30%
    17:00 +21°C° 0 mm 3 m/S 674 mmHg 33%
    18:00 +19°C° 0 mm 2 m/S 674 mmHg 37%
    19:00 +17°C° 0 mm 2 m/S 674 mmHg 42%
    20:00 +16°C° 0 mm 2 m/S 675 mmHg 46%
    21:00 +15°C° 0 mm 2 m/S 675 mmHg 49%
    22:00 +15°C° 0 mm 2 m/S 675 mmHg 52%
    23:00 +14°C° 0 mm 1 m/S 675 mmHg 55%

    27 Juni, Mittwoch

    Zeit Temperatur Niederschläge Wind Luftdruck Luftfeuchtigkeit
    00:00 +13°C° 0 mm 1 m/S 675 mmHg 58%
    01:00 +13°C° 0 mm 1 m/S 674 mmHg 61%
    02:00 +12°C° 0 mm 1 m/S 674 mmHg 64%
    03:00 +12°C° 0 mm 1 m/S 674 mmHg 66%
    04:00 +12°C° 0 mm 1 m/S 674 mmHg 69%
    05:00 +11°C° 0 mm 1 m/S 674 mmHg 71%
    06:00 +12°C° 0 mm 1 m/S 675 mmHg 68%
    07:00 +13°C° 0 mm 1 m/S 675 mmHg 65%
    08:00 +14°C° 0 mm 1 m/S 676 mmHg 62%
    09:00 +16°C° 0 mm 1 m/S 676 mmHg 53%
    10:00 +19°C° 0 mm 2 m/S 676 mmHg 45%
    11:00 +21°C° 0 mm 2 m/S 677 mmHg 37%
    12:00 +21°C° 0 mm 3 m/S 676 mmHg 34%
    13:00 +22°C° 0 mm 3 m/S 675 mmHg 31%
    14:00 +24°C° 0 mm 3 m/S 675 mmHg 28%
    15:00 +22°C° 0 mm 3 m/S 675 mmHg 31%
    16:00 +21°C° 0 mm 2 m/S 675 mmHg 34%
    17:00 +20°C° 0 mm 2 m/S 674 mmHg 37%
    18:00 +18°C° 0 mm 2 m/S 674 mmHg 42%
    19:00 +17°C° 0 mm 2 m/S 675 mmHg 47%
    20:00 +15°C° 0 mm 1 m/S 675 mmHg 52%
    21:00 +15°C° 0 mm 1 m/S 675 mmHg 55%
    22:00 +14°C° 0 mm 1 m/S 675 mmHg 57%
    23:00 +14°C° 0 mm 1 m/S 675 mmHg 60%

    28 Juni, Donnerstag

    Zeit Temperatur Niederschläge Wind Luftdruck Luftfeuchtigkeit
    00:00 +13°C° 0 mm 1 m/S 674 mmHg 62%
    01:00 +12°C° 0 mm 0 m/S 674 mmHg 64%
    02:00 +11°C° 0 mm 0 m/S 674 mmHg 66%
    03:00 +11°C° 0 mm 0 m/S 674 mmHg 68%
    04:00 +11°C° 0 mm 0 m/S 674 mmHg 70%
    05:00 +10°C° 0 mm 0 m/S 674 mmHg 72%
    06:00 +11°C° 0 mm 0 m/S 674 mmHg 69%
    07:00 +12°C° 0 mm 0 m/S 675 mmHg 65%
    08:00 +14°C° 0 mm 0 m/S 676 mmHg 61%
    09:00 +18°C° 0 mm 1 m/S 676 mmHg 52%
    10:00 +19°C° 0 mm 2 m/S 677 mmHg 43%
    11:00 +21°C° 0 mm 3 m/S 677 mmHg 34%
    12:00 +22°C° 0 mm 3 m/S 676 mmHg 32%
    13:00 +22°C° 0 mm 4 m/S 676 mmHg 29%
    14:00 +23°C° 0 mm 4 m/S 675 mmHg 27%
    15:00 +22°C° 0 mm 3 m/S 675 mmHg 30%
    16:00 +21°C° 0 mm 3 m/S 675 mmHg 33%
    17:00 +20°C° 0 mm 3 m/S 675 mmHg 35%
    18:00 +18°C° 0 mm 2 m/S 675 mmHg 39%
    19:00 +17°C° 0 mm 2 m/S 675 mmHg 43%
    20:00 +15°C° 0 mm 2 m/S 675 mmHg 47%
    21:00 +14°C° 0 mm 2 m/S 675 mmHg 49%
    22:00 +14°C° 0 mm 2 m/S 675 mmHg 51%
    23:00 +13°C° 0 mm 1 m/S 675 mmHg 53%
    Mehr zeigen